TimeEDT,TemperatureF,Dew PointF,Humidity,Sea Level PressureIn,VisibilityMPH,Wind Direction,Wind SpeedMPH,Gust SpeedMPH,PrecipitationIn,Events,Conditions,WindDirDegrees,DateUTC
12:51 AM,50.0,25.0,38,30.23,10.0,SE,10.4,-,N/A,,Clear,130,2013-04-23 04:51:00
1:51 AM,48.9,27.0,43,30.22,10.0,SE,13.8,-,N/A,,Clear,130,2013-04-23 05:51:00
2:51 AM,46.9,28.0,48,30.22,10.0,SE,8.1,-,N/A,,Clear,130,2013-04-23 06:51:00
3:51 AM,46.0,28.9,51,30.20,10.0,SE,9.2,-,N/A,,Clear,130,2013-04-23 07:51:00
4:51 AM,44.1,30.0,58,30.21,10.0,SE,8.1,-,N/A,,Clear,130,2013-04-23 08:51:00
5:51 AM,43.0,30.0,60,30.19,10.0,SE,9.2,-,N/A,,Clear,130,2013-04-23 09:51:00
6:51 AM,43.0,30.9,62,30.19,8.0,SE,11.5,-,N/A,,Clear,140,2013-04-23 10:51:00
7:51 AM,45.0,32.0,60,30.18,8.0,SE,11.5,-,N/A,,Clear,140,2013-04-23 11:51:00
8:51 AM,48.9,32.0,52,30.18,8.0,South,10.4,-,N/A,,Clear,170,2013-04-23 12:51:00
9:51 AM,54.0,33.1,45,30.17,10.0,South,12.7,-,N/A,,Partly Cloudy,180,2013-04-23 13:51:00
10:51 AM,57.9,34.0,41,30.16,10.0,South,10.4,-,N/A,,Partly Cloudy,190,2013-04-23 14:51:00
11:51 AM,62.1,36.0,38,30.15,10.0,South,10.4,-,N/A,,Scattered Clouds,190,2013-04-23 15:51:00
12:51 PM,66.9,37.0,33,30.11,9.0,South,9.2,-,N/A,,Clear,180,2013-04-23 16:51:00
1:51 PM,70.0,37.0,30,30.07,9.0,South,12.7,21.9,N/A,,Clear,190,2013-04-23 17:51:00
2:51 PM,72.0,39.0,30,30.03,10.0,South,15.0,-,N/A,,Partly Cloudy,190,2013-04-23 18:51:00
3:51 PM,71.1,37.9,30,30.02,10.0,SSW,16.1,21.9,N/A,,Mostly Cloudy,200,2013-04-23 19:51:00
4:51 PM,70.0,37.9,31,30.00,10.0,SSW,13.8,23.0,N/A,,Overcast,200,2013-04-23 20:51:00
5:51 PM,69.1,39.0,33,29.99,10.0,SSW,10.4,-,N/A,,Overcast,210,2013-04-23 21:51:00
6:51 PM,69.1,39.0,33,29.97,10.0,SSW,12.7,-,N/A,,Overcast,200,2013-04-23 22:51:00
7:51 PM,64.9,39.9,40,29.96,10.0,South,8.1,-,N/A,,Overcast,190,2013-04-23 23:51:00
8:51 PM,64.0,39.0,40,29.94,10.0,SSE,9.2,-,N/A,,Overcast,160,2013-04-24 00:51:00
9:51 PM,64.0,39.0,40,29.94,10.0,South,9.2,-,N/A,,Mostly Cloudy,170,2013-04-24 01:51:00
10:51 PM,62.1,39.0,43,29.93,10.0,South,9.2,-,N/A,,Mostly Cloudy,170,2013-04-24 02:51:00
11:51 PM,62.1,39.9,44,29.91,10.0,South,8.1,-,N/A,,Overcast,170,2013-04-24 03:51:00